Location: Spring Creek
(38.2870°N, 100.2160°W)
Time: 02:13:07
(UTC+00:00)

Spot 4 Rocket - Pass Details

Date: 08 May 2021
Orbit: 775 x 782 km, 98.7° (Epoch: 22 June)

Event Time Altitude Azimuth Distance (km) Brightness Sun altitude
Rises 10:38:40 0° 7° (N) 3,271 7.9 -10.8°
Reaches altitude 10° 10:41:03 10° 2° (N) 2,338 7.0 -10.4°
Maximum altitude 10:46:00 50° 288° (WNW) 983 4.3 -9.6°
Drops below altitude 10° 10:50:56 10° 214° (SW) 2,319 5.9 -8.8°
Enters shadow 10:51:33 - 212° (SSW) 2,555 6.2 -8.7°
